TimeCST,TemperatureF,Dew PointF,Humidity,Sea Level PressureIn,VisibilityMPH,Wind Direction,Wind SpeedMPH,Gust SpeedMPH,PrecipitationIn,Events,Conditions,WindDirDegrees,DateUTC
12:15 AM,29.3,23.0,77,30.08,10.0,South,17.3,-,N/A,,Clear,180,2013-01-07 06:15:00
12:35 AM,29.3,23.2,78,30.08,10.0,South,16.1,-,N/A,,Clear,180,2013-01-07 06:35:00
12:55 AM,28.9,23.0,78,30.07,10.0,South,16.1,-,N/A,,Clear,180,2013-01-07 06:55:00
1:15 AM,29.3,23.2,78,30.07,10.0,South,18.4,-,N/A,,Clear,180,2013-01-07 07:15:00
1:35 AM,29.3,23.2,78,30.06,10.0,South,15.0,-,N/A,,Clear,170,2013-01-07 07:35:00
1:55 AM,29.3,23.0,77,30.05,10.0,South,19.6,-,N/A,,Clear,170,2013-01-07 07:55:00
2:15 AM,30.2,23.2,75,30.04,10.0,South,19.6,-,N/A,,Clear,170,2013-01-07 08:15:00
2:35 AM,30.9,23.4,74,30.05,10.0,South,20.7,-,N/A,,Clear,180,2013-01-07 08:35:00
2:55 AM,30.7,23.2,74,30.04,10.0,South,20.7,-,N/A,,Clear,170,2013-01-07 08:55:00
3:15 AM,30.7,23.0,73,30.04,10.0,South,19.6,-,N/A,,Clear,170,2013-01-07 09:15:00
3:35 AM,31.1,23.0,72,30.03,10.0,South,19.6,-,N/A,,Clear,170,2013-01-07 09:35:00
3:55 AM,30.9,23.0,72,30.03,10.0,South,16.1,-,N/A,,Clear,170,2013-01-07 09:55:00
4:15 AM,31.3,23.0,71,30.02,10.0,South,17.3,-,N/A,,Clear,180,2013-01-07 10:15:00
4:35 AM,32.0,23.4,70,30.00,10.0,South,20.7,-,N/A,,Clear,170,2013-01-07 10:35:00
4:55 AM,31.6,23.0,70,29.99,10.0,South,19.6,25.3,N/A,,Clear,170,2013-01-07 10:55:00
5:15 AM,32.0,23.2,70,29.98,10.0,South,23.0,29.9,N/A,,Clear,170,2013-01-07 11:15:00
5:35 AM,32.0,23.0,69,29.97,10.0,South,21.9,27.6,N/A,,Clear,170,2013-01-07 11:35:00
5:55 AM,31.5,23.0,71,29.98,10.0,South,18.4,-,N/A,,Clear,180,2013-01-07 11:55:00
6:15 AM,31.1,23.0,72,29.99,10.0,South,16.1,-,N/A,,Clear,180,2013-01-07 12:15:00
6:35 AM,30.7,22.8,72,29.98,10.0,South,17.3,-,N/A,,Clear,180,2013-01-07 12:35:00
6:55 AM,30.7,22.8,72,29.98,10.0,South,16.1,-,N/A,,Clear,170,2013-01-07 12:55:00
7:15 AM,30.0,22.6,74,29.98,10.0,South,16.1,-,N/A,,Clear,180,2013-01-07 13:15:00
7:35 AM,29.8,22.5,74,29.98,10.0,South,17.3,-,N/A,,Clear,180,2013-01-07 13:35:00
7:55 AM,30.6,23.0,74,29.98,10.0,South,17.3,-,N/A,,Clear,180,2013-01-07 13:55:00
8:15 AM,31.8,23.5,71,29.99,10.0,South,16.1,-,N/A,,Clear,190,2013-01-07 14:15:00
8:35 AM,33.1,24.3,70,29.99,10.0,South,17.3,-,N/A,,Clear,190,2013-01-07 14:35:00
8:55 AM,34.2,24.8,69,29.98,10.0,SSW,19.6,-,N/A,,Clear,200,2013-01-07 14:55:00
9:15 AM,34.5,25.3,69,30.00,10.0,SSW,12.7,-,N/A,,Clear,200,2013-01-07 15:15:00
9:35 AM,34.5,25.5,70,30.00,10.0,South,16.1,-,N/A,,Clear,190,2013-01-07 15:35:00
9:55 AM,34.7,25.5,69,30.01,10.0,SSW,16.1,-,N/A,,Clear,200,2013-01-07 15:55:00
10:15 AM,35.4,25.9,68,30.01,10.0,South,15.0,-,N/A,,Clear,190,2013-01-07 16:15:00
10:35 AM,36.7,26.4,66,30.02,10.0,SSW,12.7,-,N/A,,Clear,210,2013-01-07 16:35:00
10:55 AM,37.6,26.6,65,30.02,10.0,SSW,12.7,-,N/A,,Clear,210,2013-01-07 16:55:00
11:35 AM,37.0,26.8,66,30.01,10.0,SSW,11.5,-,N/A,,Clear,210,2013-01-07 17:35:00
11:55 AM,36.5,27.3,69,29.99,10.0,SSW,15.0,-,N/A,,Clear,210,2013-01-07 17:55:00
12:15 PM,37.4,27.0,66,29.98,10.0,SW,11.5,-,N/A,,Clear,220,2013-01-07 18:15:00
12:35 PM,37.4,27.1,66,29.98,10.0,SW,9.2,-,N/A,,Clear,220,2013-01-07 18:35:00
12:55 PM,37.0,27.5,68,29.97,10.0,SSW,9.2,-,N/A,,Clear,200,2013-01-07 18:55:00
1:15 PM,36.9,27.9,70,29.96,10.0,SSW,11.5,-,N/A,,Clear,200,2013-01-07 19:15:00
1:35 PM,37.4,27.9,68,29.97,10.0,SW,8.1,-,N/A,,Clear,220,2013-01-07 19:35:00
1:55 PM,37.4,27.9,68,29.98,10.0,WSW,8.1,-,N/A,,Clear,240,2013-01-07 19:55:00
2:15 PM,37.2,28.2,70,29.98,10.0,SW,8.1,-,N/A,,Clear,230,2013-01-07 20:15:00
2:35 PM,37.2,27.5,68,29.98,10.0,SW,8.1,-,N/A,,Clear,230,2013-01-07 20:35:00
2:55 PM,36.9,27.9,70,29.97,10.0,SW,6.9,-,N/A,,Clear,220,2013-01-07 20:55:00
3:15 PM,36.5,28.2,72,29.98,10.0,SW,4.6,-,N/A,,Clear,230,2013-01-07 21:15:00
3:35 PM,36.5,28.0,71,29.98,10.0,SW,3.5,-,N/A,,Clear,220,2013-01-07 21:35:00
3:55 PM,35.8,28.2,74,29.98,10.0,SW,3.5,-,N/A,,Clear,230,2013-01-07 21:55:00
4:15 PM,35.6,28.2,75,29.98,10.0,SSW,4.6,-,N/A,,Clear,200,2013-01-07 22:15:00
4:35 PM,35.4,27.7,73,29.97,10.0,SSW,3.5,-,N/A,,Clear,210,2013-01-07 22:35:00
5:15 PM,34.7,27.7,76,29.96,10.0,Calm,Calm,-,N/A,,Clear,0,2013-01-07 23:15:00
5:35 PM,33.8,27.5,78,29.97,10.0,Calm,Calm,-,N/A,,Clear,0,2013-01-07 23:35:00
5:55 PM,32.9,26.8,78,29.98,10.0,Calm,Calm,-,N/A,,Clear,0,2013-01-07 23:55:00
6:15 PM,32.9,27.0,79,29.98,10.0,Calm,Calm,-,N/A,,Clear,0,2013-01-08 00:15:00
6:35 PM,32.5,27.1,80,29.98,10.0,Calm,Calm,-,N/A,,Clear,0,2013-01-08 00:35:00
6:55 PM,32.0,27.1,82,29.98,10.0,Calm,Calm,-,N/A,,Clear,0,2013-01-08 00:55:00
7:15 PM,32.5,27.1,80,29.98,10.0,Calm,Calm,-,N/A,,Clear,0,2013-01-08 01:15:00
7:35 PM,32.2,27.3,82,29.98,10.0,SE,3.5,-,N/A,,Clear,140,2013-01-08 01:35:00
7:55 PM,30.6,25.2,80,29.98,10.0,Calm,Calm,-,N/A,,Clear,0,2013-01-08 01:55:00
8:15 PM,31.8,27.0,82,29.97,10.0,Calm,Calm,-,N/A,,Clear,0,2013-01-08 02:15:00
8:35 PM,28.8,25.5,88,29.97,10.0,NNE,3.5,-,N/A,,Clear,30,2013-01-08 02:35:00
8:55 PM,29.7,25.5,85,29.97,10.0,NE,6.9,-,N/A,,Clear,40,2013-01-08 02:55:00
9:15 PM,29.5,25.5,85,29.97,10.0,NNE,6.9,-,N/A,,Clear,30,2013-01-08 03:15:00
9:35 PM,28.9,25.0,85,29.96,10.0,ENE,5.8,-,N/A,,Clear,60,2013-01-08 03:35:00
9:55 PM,28.9,25.2,86,29.96,10.0,ENE,5.8,-,N/A,,Clear,60,2013-01-08 03:55:00
10:15 PM,28.6,24.8,86,29.95,10.0,ENE,5.8,-,N/A,,Clear,60,2013-01-08 04:15:00
10:35 PM,30.2,26.4,86,29.95,10.0,ENE,5.8,-,N/A,,Clear,60,2013-01-08 04:35:00
10:55 PM,30.2,26.1,85,29.94,10.0,ENE,5.8,-,N/A,,Clear,70,2013-01-08 04:55:00
11:15 PM,30.6,25.9,83,29.94,10.0,East,5.8,-,N/A,,Clear,80,2013-01-08 05:15:00
11:35 PM,29.1,25.2,85,29.93,10.0,ESE,5.8,-,N/A,,Clear,110,2013-01-08 05:35:00
11:55 PM,30.2,26.2,85,29.93,10.0,East,5.8,-,N/A,,Clear,100,2013-01-08 05:55:00